This demonstration page uses our WeatherBlox Daily Observations layout. Learn more.

Left ArrowRight Arrow

36.17497, -115.13722

Hourly Observations for September 1, 2021

Temp ( °F °C ) Dew Point ( °F °C ) Humidity (%) Winds ( mph kmh ) Pressure ( in mb ) Visibility ( mi km ) Precip ( " mm )
12:53 am 00:53 Partly Cloudy 81 27.2 65 18.3 58 58 E 12 19 29.67 1005 10 16 0.00 0.00
1:53 am 01:53 Partly Cloudy 80 26.7 64 17.8 58 58 E 15 24 29.68 1005 10 16 0.00 0.00
2:53 am 02:53 Partly Cloudy with Light Rain 79 26.1 64 17.8 60 60 ESE 9 15 29.70 1006 10 16 0.00 0.00
3:53 am 03:53 Clear 79 26.1 64 17.8 60 60 SE 10 17 29.70 1006 10 16 0.00 0.00
4:53 am 04:53 Clear 78 25.6 65 18.3 64 64 ESE 9 15 29.72 1007 10 16 0.00 0.00
5:53 am 05:53 Partly Cloudy 77 25 65 18.3 66 66 E 8 13 29.75 1007 10 16 0.00 0.00
6:53 am 06:53 Mostly Sunny 78 25.6 64 17.8 62 62 E 7 11 29.76 1008 10 16 0.00 0.00
7:53 am 07:53 Mostly Sunny 78 25.6 64 17.8 62 62 ESE 9 15 29.78 1008 10 16 0.00 0.00
8:53 am 08:53 Mostly Sunny 78 25.6 65 18.3 64 64 ESE 7 11 29.79 1009 10 16 0.00 0.00
9:53 am 09:53 Sunny 80 26.7 65 18.3 60 60 SE 5 7 29.79 1009 10 16 0.00 0.00
10:53 am 10:53 Sunny 82 27.8 64 17.8 55 55 SE 5 7 29.78 1009 10 16 0.00 0.00
11:53 am 11:53 Sunny 84 28.9 63 17.2 49 49 SE 8 13 29.77 1008 10 16 0.00 0.00
12:53 pm 12:53 Sunny 86 30 62 16.7 45 45 SE 15 24 29.76 1008 10 16 0.00 0.00
1:53 pm 13:53 Sunny 88 31.1 62 16.7 42 42 ESE 12 19 29.75 1007 10 16 0.00 0.00
2:53 pm 14:53 Sunny 89 31.7 60 15.6 38 38 ESE 16 26 29.72 1007 10 16 0.00 0.00
3:53 pm 15:53 Sunny 91 32.8 61 16.1 37 37 E 15 24 29.70 1006 10 16 0.00 0.00
4:53 pm 16:53 Sunny 91 32.8 62 16.7 38 38 E 14 22 29.70 1006 10 16 0.00 0.00
5:53 pm 17:53 Sunny 90 32.2 61 16.1 38 38 ESE 17 28 29.69 1006 10 16 0.00 0.00
6:53 pm 18:53 Sunny 88 31.1 61 16.1 40 40 E 16 26 29.70 1006 10 16 0.00 0.00
7:53 pm 19:53 Clear 86 30 60 15.6 42 42 E 12 19 29.72 1006 10 16 0.00 0.00
8:53 pm 20:53 Clear 85 29.4 60 15.6 43 43 E 12 19 29.75 1007 10 16 0.00 0.00
9:53 pm 21:53 Clear 84 28.9 61 16.1 46 46 ESE 9 15 29.76 1008 10 16 0.00 0.00
10:53 pm 22:53 Clear 83 28.3 61 16.1 48 48 E 7 11 29.76 1008 10 16 0.00 0.00
11:53 pm 23:53 Clear 80 26.7 62 16.7 54 54 E 10 17 29.77 1008 10 16 0.00 0.00

Powered by AerisWeather